Regional Weather Roundup
Issued by NWS

Home | Current Version | Previous Version | Text Only | Print | Product List | Glossary Off
Versions: 1 2 3 4 5 6 7 8 9 10 11 12 13 14 15 16 17 18 19 20 21 22 23 24 25 26 27 28

000
ASUS45 KCYS 180310
RWRWY

WYOMING REGIONAL WEATHER ROUNDUP
NATIONAL WEATHER SERVICE CHEYENNE WY
800 PM MST WED JAN 17 2018

NOTE:  "FAIR" INDICATES FEW OR NO CLOUDS BELOW 12,000 FEET
WITH NO SIGNIFICANT WEATHER AND/OR OBSTRUCTIONS TO VISIBILITY.

WYZ001-180400-
YELLOWSTONE NATIONAL PARK

CITY           SKY/WX    TMP DP  RH WIND       PRES   REMARKS
LK YELLOWSTONE   N/A     23  21  92 CALM      30.32F
W YELLOWSTONE  NOT AVBL

$$
WYZ002>013-054>058-071-098>099-180400-
NORTHERN WYOMING

CITY           SKY/WX    TMP DP  RH WIND       PRES   REMARKS
JACKSON        FAIR      10   7  87 N8        30.35F WCI  -2
CODY           FAIR      33  17  51 CALM      30.16F
GREYBULL       FAIR      14   9  80 S3        30.18F
WORLAND        FAIR      15  11  83 CALM      30.19F
SHERIDAN       FAIR      22  14  71 S3        30.08F
BUFFALO        FAIR      33  11  39 W7        30.10F WCI  27
GILLETTE         N/A    N/A N/A N/A MISG      30.08F
HULETT         FAIR      34  19  55 SW10      30.10F WCI  26
NEWCASTLE      FAIR      28  18  64 N8        30.17R WCI  20

$$
WYZ014>020-022>026-101>103-180400-
CENTRAL WYOMING

CITY           SKY/WX    TMP DP  RH WIND       PRES   REMARKS
BIG PINEY      FAIR      20  16  84 CALM      30.33F
PINEDALE       FAIR      12  10  92 NW6       30.35F WCI   3
DUBOIS         FAIR      32  19  59 NW18      30.24S WCI  20
LANDER         FAIR      20  15  81 W6        30.21F WCI  12
RIVERTON       FAIR      19  11  70 SW6       30.22F WCI  11
CASPER         FAIR      34  19  54 SW17      30.19F WCI  23
DOUGLAS        FAIR      24  19  81 N3        30.18F

$$
WYZ021-027>030-104>119-180400-
SOUTHERN WYOMING

CITY           SKY/WX    TMP DP  RH WIND       PRES   REMARKS
EVANSTON       FAIR      30  25  81 SW6       30.36S WCI  24
FORT BRIDGER   FAIR      30  24  77 W12       30.37S WCI  21
ROCK SPRINGS   FAIR      30  22  72 SW12      30.33S WCI  20
DIXON            N/A     23  17  77 CALM      30.38S
RAWLINS        FAIR      31  18  58 W9        30.31S WCI  23
SARATOGA       FAIR      23  14  68 S7        30.32S WCI  15
LARAMIE        FAIR      21  12  68 E3        30.25F
CHEYENNE       FAIR      25  15  66 W10       30.24S WCI  15
TORRINGTON     FAIR      30  24  78 CALM      30.19F

$$




USA.gov is the U.S. government's official web portal to all federal, state and local government web resources and services.